KN4YMT-13 Weather Reports


time (UTC)temp
C
wind
direction
speed
KPH
gust
KPH
rain 1hr
cm
rain 24hr
cm
rain mn
cm
humidity
%
barometer
mb
20260906115501 23 180 0.0 0.0 0.00 0.00 0.00 93 991.5
20260906115001 23 281 0.0 0.0 0.00 0.00 0.00 92 991.5
20260906114501 23 324 0.0 0.0 0.00 0.00 0.00 92 991.5
20260906114001 23 282 0.0 0.0 0.00 0.00 0.00 91 991.5
20260906113501 24 262 0.0 0.0 0.00 0.00 0.00 91 991.5
20260906113001 24 283 0.0 0.0 0.00 0.00 0.00 91 991.5
20260906112501 24 283 0.0 0.0 0.00 0.00 0.00 90 991.5
20260906112000 24 282 0.0 0.0 0.00 0.00 0.00 89 991.5
20260906111501 25 23 0.0 0.0 0.00 0.00 0.00 89 991.5
20260906111000 25 273 0.0 0.0 0.00 0.00 0.00 88 991.5
20260906110500 25 265 0.0 0.0 0.00 0.00 0.00 87 991.5
20260906110001 25 256 0.0 0.0 0.00 0.00 0.00 87 991.5
20260906105501 25 277 0.0 0.0 0.00 0.00 0.00 86 991.5
20260906105000 25 282 0.0 0.0 0.00 0.00 0.00 86 991.5
20260906104500 25 270 0.0 9.7 0.00 0.00 0.00 85 991.5
20260906104001 25 227 0.0 0.0 0.00 0.00 0.00 88 991.9
20260906103501 25 289 0.0 11.3 0.00 0.00 0.00 88 991.5
20260906103000 25 276 0.0 4.8 0.00 0.00 0.00 91 991.9
20260906102501 25 254 0.0 4.8 0.00 0.00 0.00 94 991.5
20260906102001 25 289 0.0 0.0 0.00 0.00 0.00 95 991.5
20260906101501 25 225 0.0 0.0 0.00 0.00 0.00 95 991.5
20260906101001 25 279 0.0 0.0 0.00 0.00 0.00 95 991.5
20260906100501 25 273 0.0 0.0 0.00 0.00 0.00 95 991.2
20260906100001 25 214 0.0 0.0 0.00 0.00 0.00 95 990.9
20260906095501 25 71 0.0 0.0 0.00 0.00 0.00 95 990.9
20260906095000 25 283 0.0 0.0 0.00 0.00 0.00 95 990.9
20260906094501 25 284 0.0 0.0 0.00 0.00 0.00 95 990.9
20260906094000 25 260 0.0 0.0 0.00 0.00 0.00 95 990.9
20260906093501 25 265 0.0 0.0 0.00 0.00 0.00 94 990.9
20260906093001 25 268 0.0 0.0 0.00 0.00 0.00 94 990.9
20260906092501 25 266 0.0 0.0 0.00 0.00 0.00 94 990.9
20260906092000 25 262 0.0 0.0 0.00 0.00 0.00 94 990.9
20260906091501 25 240 0.0 0.0 0.00 0.00 0.00 94 990.9
20260906091000 25 275 0.0 0.0 0.00 0.00 0.00 94 990.9
20260906090501 25 264 0.0 0.0 0.00 0.00 0.00 94 990.5
20260906090001 25 251 0.0 0.0 0.00 0.00 0.00 95 990.9
20260906085500 25 217 0.0 1.6 0.00 0.00 0.00 95 990.5
20260906085001 25 270 0.0 0.0 0.00 0.00 0.00 95 990.5
20260906084501 25 264 0.0 0.0 0.00 0.00 0.00 96 990.5
20260906084001 25 197 0.0 0.0 0.00 0.00 0.00 96 990.9
20260906083501 25 279 0.0 0.0 0.00 0.00 0.00 96 990.9
20260906083000 25 275 0.0 0.0 0.00 0.00 0.00 97 990.9
20260906082501 25 242 0.0 3.2 0.00 0.00 0.00 97 990.9
20260906082000 25 164 3.2 3.2 0.00 0.00 0.00 97 991.2
20260906081501 25 287 0.0 4.8 0.00 0.00 0.00 97 991.2
20260906081000 25 292 0.0 0.0 0.00 0.00 0.00 96 991.2
20260906080501 25 217 0.0 1.6 0.00 0.00 0.00 96 990.9
20260906080001 24 286 0.0 0.0 0.00 0.00 0.00 97 990.9
20260906075501 24 271 0.0 0.0 0.00 0.00 0.00 97 990.9
20260906075000 24 269 0.0 0.0 0.00 0.00 0.00 97 990.9
20260906074500 24 267 0.0 0.0 0.00 0.00 0.00 96 990.9
20260906074001 24 280 0.0 0.0 0.00 0.00 0.00 96 990.9
20260906073501 24 243 0.0 0.0 0.00 0.00 0.00 96 990.9
20260906073001 24 271 0.0 0.0 0.00 0.00 0.00 97 990.9
20260906072500 24 297 0.0 0.0 0.00 0.00 0.00 97 990.9
20260906072001 24 298 0.0 0.0 0.00 0.00 0.00 97 990.9
20260906071500 24 267 0.0 0.0 0.00 0.00 0.00 97 990.9
20260906071000 24 276 0.0 0.0 0.00 0.00 0.00 97 990.9
20260906070500 24 273 0.0 0.0 0.00 0.00 0.00 97 990.5
20260906070001 24 270 0.0 0.0 0.00 0.00 0.00 97 990.9
20260906065501 23 293 0.0 0.0 0.00 0.00 0.00 97 990.9
20260906065001 23 144 0.0 0.0 0.00 0.00 0.00 97 990.9
20260906064500 23 290 0.0 0.0 0.00 0.00 0.00 97 990.9
20260906064001 23 291 0.0 0.0 0.00 0.00 0.00 97 991.2
20260906063501 23 281 0.0 0.0 0.00 0.00 0.00 97 991.2
20260906063001 23 352 0.0 0.0 0.00 0.00 0.00 97 991.2
20260906062501 23 277 0.0 0.0 0.00 0.00 0.00 97 991.2
20260906062000 23 283 0.0 0.0 0.00 0.00 0.00 97 991.2
20260906061500 23 289 0.0 0.0 0.00 0.00 0.00 96 991.2
20260906061000 23 287 0.0 0.0 0.00 0.00 0.00 96 991.2
20260906060501 23 278 0.0 0.0 0.00 0.00 0.00 96 991.5
20260906060000 24 280 0.0 0.0 0.00 0.00 0.00 96 991.5
20260906055501 24 279 0.0 0.0 0.00 0.00 0.00 96 991.5
20260906055003 24 287 0.0 0.0 0.00 0.00 0.00 96 991.5
20260906054500 24 280 0.0 0.0 0.00 0.00 0.00 96 991.5
20260906054000 24 315 0.0 0.0 0.00 0.00 0.00 96 991.5
20260906053501 24 281 0.0 0.0 0.00 0.00 0.00 95 991.5
20260906053000 24 279 0.0 0.0 0.00 0.00 0.00 95 991.9
20260906052500 24 285 0.0 0.0 0.00 0.00 0.00 95 991.5
20260906052001 24 282 0.0 0.0 0.00 0.00 0.00 95 991.5
20260906051501 24 227 0.0 0.0 0.00 0.00 0.00 95 991.9
20260906051001 24 279 0.0 0.0 0.00 0.00 0.00 95 991.9
20260906050501 24 280 0.0 0.0 0.00 0.00 0.00 95 991.9
20260906050000 24 248 0.0 0.0 0.00 0.00 0.00 94 991.9
20260906045501 24 281 0.0 0.0 0.00 0.00 0.00 94 991.5
20260906045001 24 280 0.0 0.0 0.00 0.00 0.00 94 991.5
20260906044500 25 193 0.0 0.0 0.00 0.00 0.00 95 991.5
20260906044000 24 272 0.0 0.0 0.00 0.00 0.00 95 991.5
20260906043500 24 290 0.0 0.0 0.00 0.00 0.00 95 991.5
20260906043000 24 279 0.0 0.0 0.00 0.00 0.00 94 991.5
20260906042500 24 281 0.0 0.0 0.00 0.00 0.00 94 991.5
20260906042000 24 280 0.0 0.0 0.00 0.00 0.00 94 991.5
20260906041501 24 281 0.0 0.0 0.00 0.00 0.00 94 991.5
20260906041001 24 276 0.0 0.0 0.00 0.00 0.00 94 991.9
20260906040501 24 282 0.0 0.0 0.00 0.00 0.00 94 991.5
20260906040000 25 304 0.0 0.0 0.00 0.00 0.00 94 991.5
20260906035501 25 280 0.0 0.0 0.00 0.00 0.00 94 991.5
20260906035000 25 286 0.0 0.0 0.00 0.00 0.00 93 991.5
20260906034500 25 287 0.0 0.0 0.00 0.00 0.00 93 991.5
20260906034001 25 280 0.0 0.0 0.00 0.00 0.00 93 991.9
20260906033500 25 288 0.0 0.0 0.00 0.00 0.00 93 991.9
20260906033003 25 288 0.0 0.0 0.00 0.00 0.00 93 991.9
20260906032501 25 275 0.0 0.0 0.00 0.00 0.00 92 991.5
20260906032000 25 272 0.0 0.0 0.00 0.00 0.00 92 991.5
20260906031501 25 279 0.0 0.0 0.00 0.00 0.00 92 991.5
20260906031000 25 281 0.0 0.0 0.00 0.00 0.00 92 991.5
20260906030501 25 282 0.0 0.0 0.00 0.00 0.00 92 991.5
20260906030001 25 282 0.0 0.0 0.00 0.00 0.00 92 991.5
20260906025501 25 279 0.0 0.0 0.00 0.00 0.00 91 991.5
20260906025000 25 290 0.0 0.0 0.00 0.00 0.00 91 991.5
20260906024501 25 282 0.0 0.0 0.00 0.00 0.00 91 991.5
20260906024000 25 278 0.0 0.0 0.00 0.00 0.00 90 991.5
20260906023501 25 279 0.0 0.0 0.00 0.00 0.00 90 991.5
20260906023001 25 287 0.0 0.0 0.00 0.00 0.00 90 991.5
20260906022501 25 279 0.0 0.0 0.00 0.00 0.00 90 991.5
20260906022000 25 277 0.0 0.0 0.00 0.00 0.00 90 991.5
20260906021500 25 248 0.0 0.0 0.00 0.00 0.00 90 991.5
20260906021001 25 274 0.0 0.0 0.00 0.00 0.00 89 991.5
20260906020501 25 274 0.0 0.0 0.00 0.00 0.00 89 991.5
20260906020000 26 279 0.0 0.0 0.00 0.00 0.00 88 991.5
20260906015501 26 284 0.0 0.0 0.00 0.00 0.00 88 991.2
20260906015001 26 276 0.0 0.0 0.00 0.00 0.00 88 991.2
20260906014501 26 275 0.0 0.0 0.00 0.00 0.00 88 991.2
20260906014001 26 279 0.0 0.0 0.00 0.00 0.00 88 990.9
20260906013501 26 278 0.0 0.0 0.00 0.00 0.00 88 990.9
20260906013000 26 273 0.0 0.0 0.00 0.00 0.00 88 990.9
20260906012501 26 236 0.0 0.0 0.00 0.00 0.00 88 990.5
20260906012000 26 287 0.0 0.0 0.00 0.00 0.00 87 990.5
20260906011500 26 274 0.0 0.0 0.00 0.00 0.00 87 990.2
20260906011000 26 285 0.0 0.0 0.00 0.00 0.00 87 990.2
20260906010500 27 280 0.0 0.0 0.00 0.00 0.00 87 990.2
20260906010001 27 276 0.0 0.0 0.00 0.00 0.00 86 990.2
20260906005501 27 277 0.0 0.0 0.00 0.00 0.00 86 990.2
20260906005001 27 274 0.0 0.0 0.00 0.00 0.00 85 990.2
20260906004501 27 292 0.0 0.0 0.00 0.00 0.00 85 990.2
20260906004001 27 268 0.0 0.0 0.00 0.00 0.00 85 990.2
20260906003501 27 248 0.0 0.0 0.00 0.00 0.00 84 990.2
20260906003000 27 279 0.0 0.0 0.00 0.00 0.00 83 990.2
20260906002501 28 272 0.0 0.0 0.00 0.00 0.00 82 989.8
20260906002001 28 278 0.0 0.0 0.00 0.00 0.00 82 990.2
20260906001501 28 290 0.0 0.0 0.00 0.00 0.00 81 990.2
20260906001001 28 286 0.0 0.0 0.00 0.00 0.00 80 990.2
20260906000501 28 283 0.0 0.0 0.00 0.00 0.00 80 990.2
20260906000000 28 188 0.0 0.0 0.00 0.00 0.00 80 990.2
20260905235501 28 227 0.0 0.0 0.00 0.00 0.00 80 990.2
20260905235000 29 277 0.0 4.8 0.00 0.00 0.00 79 990.5
20260905234501 29 224 0.0 0.0 0.00 0.00 0.00 79 990.5
20260905234000 29 311 0.0 0.0 0.00 0.00 0.00 79 990.5
20260905233500 30 282 0.0 0.0 0.00 0.00 0.00 78 990.5
20260905233000 30 317 0.0 0.0 0.00 0.00 0.00 78 990.5
20260905232501 30 287 0.0 0.0 0.00 0.00 0.00 77 990.5
20260905232001 30 290 0.0 0.0 0.00 0.00 0.00 76 990.2
20260905231501 30 186 4.8 4.8 0.00 0.00 0.00 75 990.2
20260905231001 31 62 1.6 1.6 0.00 0.00 0.00 76 990.2
20260905230501 31 319 0.0 0.0 0.00 0.00 0.00 76 990.2
20260905230000 31 36 0.0 0.0 0.00 0.00 0.00 75 990.2
20260905225500 31 7 0.0 3.2 0.00 0.00 0.00 74 990.2
20260905225001 31 270 0.0 3.2 0.00 0.00 0.00 73 990.2
20260905224501 31 343 0.0 3.2 0.00 0.00 0.00 73 989.8
20260905224001 32 19 1.6 8.0 0.00 0.00 0.00 72 989.8
20260905223500 32 19 1.6 8.0 0.00 0.00 0.00 72 989.8
20260905223000 32 215 0.0 0.0 0.00 0.00 0.00 71 989.8
20260905222501 32 215 0.0 0.0 0.00 0.00 0.00 71 989.8
20260905222001 31 287 0.0 0.0 0.00 0.00 0.00 67 992.6
20260905221501 31 287 0.0 0.0 0.00 0.00 0.00 67 992.6
20260905221001 31 287 0.0 0.0 0.00 0.00 0.00 67 992.6
20260905220501 31 287 0.0 0.0 0.00 0.00 0.00 67 992.6
20260905220000 31 287 0.0 0.0 0.00 0.00 0.00 67 992.6
20260905215501 31 287 0.0 0.0 0.00 0.00 0.00 67 992.6
20260905215000 31 287 0.0 0.0 0.00 0.00 0.00 67 992.6
20260905214500 31 287 0.0 0.0 0.00 0.00 0.00 67 992.6
20260905214001 31 287 0.0 0.0 0.00 0.00 0.00 67 992.6
20260905213500 31 287 0.0 0.0 0.00 0.00 0.00 67 992.6
20260905213001 31 287 0.0 0.0 0.00 0.00 0.00 67 992.6
20260905212501 31 287 0.0 0.0 0.00 0.00 0.00 67 992.6
20260905212001 31 287 0.0 0.0 0.00 0.00 0.00 67 992.6
20260905211501 31 287 0.0 0.0 0.00 0.00 0.00 67 992.6
20260905211001 31 287 0.0 0.0 0.00 0.00 0.00 67 992.6
20260905210501 31 287 0.0 0.0 0.00 0.00 0.00 67 992.6
20260905210000 31 287 0.0 0.0 0.00 0.00 0.00 67 992.6
20260905205500 31 287 0.0 0.0 0.00 0.00 0.00 67 992.6
20260905205000 31 287 0.0 0.0 0.00 0.00 0.00 67 992.6
20260905204500 31 287 0.0 0.0 0.00 0.00 0.00 67 992.6
20260905204001 31 287 0.0 0.0 0.00 0.00 0.00 67 992.6
20260905203501 31 287 0.0 0.0 0.00 0.00 0.00 67 992.6
20260905203001 31 287 0.0 0.0 0.00 0.00 0.00 67 992.6
20260905202501 31 287 0.0 0.0 0.00 0.00 0.00 67 992.6
20260905202001 31 287 0.0 0.0 0.00 0.00 0.00 67 992.6
20260905201501 31 287 0.0 0.0 0.00 0.00 0.00 67 992.6
20260905201000 31 287 0.0 0.0 0.00 0.00 0.00 67 992.6
20260905200501 31 287 0.0 0.0 0.00 0.00 0.00 67 992.6
20260905200001 31 287 0.0 0.0 0.00 0.00 0.00 67 992.6
20260905195501 31 287 0.0 0.0 0.00 0.00 0.00 67 992.6
20260905195001 31 287 0.0 0.0 0.00 0.00 0.00 67 992.6
20260905194501 31 287 0.0 0.0 0.00 0.00 0.00 67 992.6
20260905194001 31 287 0.0 0.0 0.00 0.00 0.00 67 992.6
20260905193500 31 287 0.0 0.0 0.00 0.00 0.00 67 992.6
20260905193000 31 287 0.0 0.0 0.00 0.00 0.00 67 992.6
20260905192501 31 287 0.0 0.0 0.00 0.00 0.00 67 992.6
20260905192001 31 287 0.0 0.0 0.00 0.00 0.00 67 992.6
20260905191501 31 287 0.0 0.0 0.00 0.00 0.00 67 992.6
20260905191000 31 287 0.0 0.0 0.00 0.00 0.00 67 992.6
20260905190501 31 287 0.0 0.0 0.00 0.00 0.00 67 992.6
20260905190001 31 287 0.0 0.0 0.00 0.00 0.00 67 992.6
20260905185501 31 287 0.0 0.0 0.00 0.00 0.00 67 992.6
20260905185006 31 287 0.0 0.0 0.00 0.00 0.00 67 992.6
20260905184500 31 287 0.0 0.0 0.00 0.00 0.00 67 992.6
20260905184001 31 287 0.0 0.0 0.00 0.00 0.00 67 992.6
20260905183501 31 287 0.0 0.0 0.00 0.00 0.00 67 992.6
20260905183001 31 287 0.0 0.0 0.00 0.00 0.00 67 992.6
20260905182500 31 287 0.0 0.0 0.00 0.00 0.00 67 992.6
20260905182001 31 287 0.0 0.0 0.00 0.00 0.00 67 992.6
20260905181500 31 287 0.0 0.0 0.00 0.00 0.00 67 992.6
20260905181000 31 287 0.0 0.0 0.00 0.00 0.00 67 992.6
20260905180500 31 287 0.0 0.0 0.00 0.00 0.00 67 992.6
20260905180000 31 287 0.0 0.0 0.00 0.00 0.00 67 992.6
20260905175501 31 287 0.0 0.0 0.00 0.00 0.00 67 992.6
20260905175001 31 287 0.0 0.0 0.00 0.00 0.00 67 992.6
20260905174500 31 287 0.0 0.0 0.00 0.00 0.00 67 992.6
20260905174006 31 287 0.0 0.0 0.00 0.00 0.00 67 992.6
20260905173501 31 287 0.0 0.0 0.00 0.00 0.00 67 992.6
20260905173000 31 287 0.0 0.0 0.00 0.00 0.00 67 992.6
20260905172501 31 287 0.0 0.0 0.00 0.00 0.00 67 992.6
20260905172001 31 287 0.0 0.0 0.00 0.00 0.00 67 992.6
20260905171501 31 287 0.0 0.0 0.00 0.00 0.00 67 992.6
20260905171001 31 287 0.0 0.0 0.00 0.00 0.00 67 992.6
20260905170501 31 287 0.0 0.0 0.00 0.00 0.00 67 992.6
20260905170000 31 287 0.0 0.0 0.00 0.00 0.00 67 992.6
20260905165501 31 287 0.0 0.0 0.00 0.00 0.00 67 992.6
20260905165001 31 287 0.0 0.0 0.00 0.00 0.00 67 992.6
20260905164501 31 287 0.0 0.0 0.00 0.00 0.00 67 992.6
20260905164000 31 287 0.0 0.0 0.00 0.00 0.00 67 992.6
20260905163500 31 287 0.0 0.0 0.00 0.00 0.00 67 992.6
20260905163001 31 287 0.0 0.0 0.00 0.00 0.00 67 992.6
20260905162501 31 287 0.0 0.0 0.00 0.00 0.00 67 992.6
20260905162001 31 287 0.0 0.0 0.00 0.00 0.00 67 992.6
20260905161500 31 287 0.0 0.0 0.00 0.00 0.00 67 992.6
20260905161001 31 287 0.0 0.0 0.00 0.00 0.00 67 992.6
20260905160501 31 287 0.0 0.0 0.00 0.00 0.00 67 992.6
20260905160001 31 287 0.0 0.0 0.00 0.00 0.00 67 992.6
20260905155500 31 287 0.0 0.0 0.00 0.00 0.00 67 992.6
20260905155001 31 287 0.0 0.0 0.00 0.00 0.00 67 992.6
20260905154500 31 287 0.0 0.0 0.00 0.00 0.00 67 992.6
20260905154000 31 287 0.0 0.0 0.00 0.00 0.00 67 992.6
20260905153501 31 287 0.0 0.0 0.00 0.00 0.00 67 992.6
20260905153000 31 287 0.0 0.0 0.00 0.00 0.00 67 992.6
20260905152501 31 287 0.0 0.0 0.00 0.00 0.00 67 992.6
20260905152001 31 287 0.0 0.0 0.00 0.00 0.00 67 992.6
20260905151500 31 287 0.0 0.0 0.00 0.00 0.00 67 992.6
20260905151001 31 287 0.0 0.0 0.00 0.00 0.00 67 992.6
20260905150500 31 287 0.0 0.0 0.00 0.00 0.00 67 992.6
20260905150000 31 287 0.0 0.0 0.00 0.00 0.00 67 992.6
20260905145501 31 287 0.0 0.0 0.00 0.00 0.00 67 992.6
20260905145000 31 287 0.0 0.0 0.00 0.00 0.00 67 992.6
20260905144500 31 287 0.0 0.0 0.00 0.00 0.00 67 992.6
20260905144001 31 287 0.0 0.0 0.00 0.00 0.00 67 992.6
20260905143501 31 287 0.0 0.0 0.00 0.00 0.00 67 992.6
20260905143000 31 287 0.0 0.0 0.00 0.00 0.00 67 992.6
20260905142501 31 287 0.0 0.0 0.00 0.00 0.00 67 992.6
20260905142001 31 287 0.0 0.0 0.00 0.00 0.00 67 992.6
20260905141500 31 287 0.0 0.0 0.00 0.00 0.00 67 992.6
20260905141001 31 287 0.0 0.0 0.00 0.00 0.00 67 992.6
20260905140500 31 287 0.0 0.0 0.00 0.00 0.00 67 992.6
20260905140001 31 287 0.0 0.0 0.00 0.00 0.00 67 992.6
20260905135501 31 287 0.0 0.0 0.00 0.00 0.00 67 992.6
20260905135000 31 287 0.0 0.0 0.00 0.00 0.00 67 992.6
20260905134500 31 287 0.0 0.0 0.00 0.00 0.00 67 992.6
20260905134001 31 287 0.0 0.0 0.00 0.00 0.00 67 992.6
20260905133500 31 287 0.0 0.0 0.00 0.00 0.00 67 992.6
20260905133000 31 287 0.0 0.0 0.00 0.00 0.00 67 992.6
20260905132501 31 287 0.0 0.0 0.00 0.00 0.00 67 992.6
20260905132000 31 287 0.0 0.0 0.00 0.00 0.00 67 992.6
20260905131501 31 287 0.0 0.0 0.00 0.00 0.00 67 992.6
20260905131001 31 287 0.0 0.0 0.00 0.00 0.00 67 992.6
20260905130501 31 287 0.0 0.0 0.00 0.00 0.00 67 992.6
20260905130001 31 287 0.0 0.0 0.00 0.00 0.00 67 992.6
20260905125500 31 287 0.0 0.0 0.00 0.00 0.00 67 992.6
20260905125001 31 287 0.0 0.0 0.00 0.00 0.00 67 992.6
20260905124501 31 287 0.0 0.0 0.00 0.00 0.00 67 992.6
20260905124001 31 287 0.0 0.0 0.00 0.00 0.00 67 992.6
20260905123501 31 287 0.0 0.0 0.00 0.00 0.00 67 992.6
20260905123001 31 287 0.0 0.0 0.00 0.00 0.00 67 992.6
20260905122501 31 287 0.0 0.0 0.00 0.00 0.00 67 992.6
20260905122001 31 287 0.0 0.0 0.00 0.00 0.00 67 992.6
20260905121501 31 287 0.0 0.0 0.00 0.00 0.00 67 992.6
20260905121001 31 287 0.0 0.0 0.00 0.00 0.00 67 992.6
20260905120500 31 287 0.0 0.0 0.00 0.00 0.00 67 992.6
20260905120001 31 287 0.0 0.0 0.00 0.00 0.00 67 992.6